Content
SEND FEEDBACK

Daily
Averages
Monthly
Summary
United States of America

BRICE PRAIRIE, WISCONSIN


Home > North America > United States > Wisconsin
Elevation: 650 feet     Latitude: 43 54N     Longitude: 091 18W

WEATHER
 
SELECT A DAY
Number of Records: 197,995;   Date Range: 1/1/95 - 8/28/14
 
SHARE

PRINT THIS DATA

[ ← Previous Day ]
WEATHER ALMANAC - FEBRUARY 13, 2013
[ Next Day → ]
[ °C ]   °F
Weather ElementAverageHighLow
Temperature29.9 °F36 °F (1:53 pm)19.9 °F (5:53 am)
Dewpoint24.3 °F30.9 °F (11:53 pm)18 °F (5:53 am)
Humidity80.4 %92 % (2:53 am)67 % (12:53 pm)
Barometer29.74 in29.85 in (1:53 am)29.57 in (11:39 pm)
Wind Speed4.8 mph9.2 mph (4:53 pm)
Weather ElementAverage
Visibility8.3 mi
Wind DirectionSE (137.5 °)

Weather ElementTotal
Precipitation0.03 in
Heating Degree Days37.1 (Base 65)
Averaged from 24 records on February 13, 2013
WEATHER CONDITIONS BREAKOUT
WIND DIRECTION BREAKOUT
WEATHER BY HOUR - FEBRUARY 13, 2013
[ °C ]   °F
Local TimeTemperatureDewpointHumidityBarometerVisibilityWind DirectionWind SpeedGust SpeedPrecipitationEventsConditions
1:53 AM21.9 °F19.0 °F89 %29.85 in6.0 miSSW (200°)4.6 mphClear
2:53 AM21.9 °F19.9 °F92 %29.83 in6.0 miSouth (170°)4.6 mphClear
3:53 AM21.9 °F19.9 °F92 %29.82 in6.0 miSouth (170°)3.5 mphOvercast
4:53 AM21.0 °F19.0 °F92 %29.82 in4.0 miCalmClear
5:53 AM19.9 °F18.0 °F92 %29.82 in6.0 miCalmOvercast
6:53 AM21.9 °F19.9 °F92 %29.81 in6.0 miSouth (180°)5.8 mphOvercast
7:53 AM21.9 °F19.9 °F92 %29.81 in6.0 miSouth (170°)4.6 mphOvercast
8:53 AM24.1 °F21.0 °F88 %29.79 in7.0 miSSW (200°)3.5 mphOvercast
9:53 AM28.0 °F21.0 °F75 %29.78 inCalmClear
10:53 AM30.0 °F21.0 °F69 %29.78 inCalm
11:53 AM32.0 °F24.1 °F73 %29.76 in10.0 miSSE (150°)3.5 mph
12:53 PM35.1 °F25.0 °F67 %29.74 in10.0 miSE (140°)6.9 mphOvercast
1:53 PM36.0 °F26.1 °F67 %29.74 in10.0 miCalmOvercast
2:53 PM36.0 °F26.1 °F67 %29.73 in10.0 miSSW (200°)5.8 mphOvercast
3:53 PM36.0 °F26.1 °F67 %29.73 in10.0 miSouth (180°)5.8 mphOvercast
4:53 PM36.0 °F27.0 °F70 %29.71 in10.0 miSouth (180°)9.2 mphOvercast
5:53 PM36.0 °F27.0 °F70 %29.72 in10.0 miSouth (190°)4.6 mphOvercast
6:53 PM35.1 °F27.0 °F72 %29.72 in10.0 miSouth (190°)4.6 mphOvercast
7:53 PM34.0 °F28.0 °F79 %29.70 in10.0 miSouth (170°)8.1 mphOvercast
8:53 PM34.0 °F28.9 °F82 %29.67 in10.0 miSSE (150°)6.9 mphOvercast
9:53 PM34.0 °F28.9 °F82 %29.64 in8.0 miSSE (160°)6.9 mph0.00 inSnowLight Snow
10:53 PM34.0 °F30.0 °F85 %29.61 in7.0 miSouth (170°)8.1 mph0.02 inSnowLight Snow
11:39 PM33.8 °F30.2 °F87 %29.57 in10.0 miSSE (160°)9.2 mph0.00 inOvercast
11:53 PM34.0 °F30.9 °F89 %29.60 in10.0 miSouth (170°)9.2 mph0.01 inOvercast
Hourly data recorded from KLSE, located miles away from Brice Prairie, Wisconsin







STORIES FROM OUR PARTNERS